#timestamp,LO_Frequency,Hit,StdDev 
1561258815.9,286046984.1,Y
1561258835.7,286046981.0,P
1561258855.5,286046985.2,N
1561258875.4,286046986.9,N
1561258895.2,286046986.1,N
1561258915.1,286046936.3,Y
1561258916.0,286046936.3,P
1561258935.8,286046993.2,N
1561258955.6,286046995.9,N
1561258975.5,286046992.3,N
1561258995.3,286047076.6,Y
1561259015.1,286047021.9,P
1561259035.9,286047022.1,N
1561259055.7,286047022.2,N
1561259075.6,286047024.1,N
1561259095.4,286047029.9,N
1561259115.2,286047031.6,N
1561259135.1,286047031.1,N
1561259136.0,286047031.1,N
1561259155.8,286047029.1,N
1561259175.7,286047036.8,N
1561259195.5,286047041.0,N
1561259215.3,286047040.8,N
1561259235.2,286047038.2,N
1561259255.0,286047038.8,N
1561259255.9,286047038.8,N
1561259275.7,286047039.6,N
1561259295.6,286047033.9,N
1561259315.4,286047036.9,N
1561259335.3,286047040.3,Y
1561259355.1,286047011.7,P
1561259356.0,286047011.7,N
1561259375.8,286047012.0,N
1561259395.7,286047018.1,N
1561259415.5,286047012.7,N
1561259435.4,286047011.9,N
1561259455.2,286047013.6,N
1561259475.0,286047007.7,N
1561259475.9,286047007.7,N
1561259495.8,286047012.0,N
1561259515.6,286047015.3,N
1561259535.4,286047015.9,N
1561259555.3,286047019.4,Y
1561259575.1,286047007.5,P
1561259595.9,286047007.4,N
1561259615.7,286047010.8,P
1561259635.5,286047012.6,Y
1561259655.4,286047001.9,P
1561259675.2,286047006.4,N
1561259695.0,286047011.6,P
1561259696.0,286047011.6,Y
1561259715.8,286047003.6,P
1561259735.6,286047008.0,P
1561259755.5,286047006.5,P
1561259775.3,286047002.9,N
1561259795.1,286047002.4,N
1561259815.9,286047001.8,N
1561259835.7,286047000.2,N
1561259855.6,286046999.3,N
1561259875.4,286047001.2,N
1561259895.2,286047004.0,N
1561259915.1,286047005.7,N
1561259916.0,286047005.7,N
1561259935.8,286047007.3,N
1561259955.6,286047009.2,Y
1561259975.5,286047001.6,P
1561259995.3,286047000.9,N
1561260015.2,286046998.5,N
1561260035.9,286047002.8,N
1561260055.7,286047000.4,N
1561260075.6,286046999.3,N
1561260095.4,286046996.6,N
1561260115.2,286046998.3,N
1561260135.1,286047000.7,N
1561260136.0,286047000.7,N
1561260155.8,286046998.9,N
1561260175.7,286047001.1,N
1561260195.5,286046999.1,N
1561260215.3,286046999.4,N
1561260235.2,286046997.2,N
1561260255.0,286046993.3,Y
1561260255.9,286046993.3,P
1561260275.8,286046996.2,N
1561260295.6,286046997.7,N
1561260315.4,286046995.2,N
1561260335.3,286046995.5,N
1561260355.1,286046991.8,Y
1561260375.9,286046994.1,P
1561260395.7,286046991.8,P
1561260415.5,286046992.8,P
1561260435.4,286046988.9,Y
1561260455.2,286046993.5,P
1561260475.0,286046992.4,P
1561260475.9,286046992.4,P
1561260495.8,286046989.7,Y
1561260515.6,286046992.0,P
1561260535.5,286046993.4,P
1561260555.3,286046995.8,P
1561260575.1,286046988.3,Y
1561260595.9,286046984.2,P
1561260615.7,286046979.2,P
1561260635.6,286046982.9,N
1561260655.4,286046976.1,Y
1561260675.2,286046987.7,P
1561260695.1,286046991.9,P
1561260696.0,286046991.9,N
1561260715.8,286046997.3,N
1561260735.7,286046998.8,N
1561260755.5,286046996.2,N
1561260775.3,286046993.5,N
1561260795.2,286046987.0,N
1561260815.0,286046991.4,N
1561260815.9,286046991.4,N
1561260835.8,286046999.2,N
1561260855.6,286046999.5,N
1561260875.4,286046993.8,N
1561260895.3,286046988.9,N
1561260915.1,286046983.5,Y
1561260935.9,286046985.8,P
1561260955.7,286046984.9,P
1561260975.5,286046984.5,P
1561260995.4,286046989.8,N
1561261015.2,286046988.7,Y
1561261035.1,286046997.8,P
1561261036.0,286046997.8,N
1561261055.8,286046994.1,N
1561261075.6,286046998.9,N
1561261095.5,286047001.6,N
1561261115.3,286047002.2,N
1561261135.1,286046999.3,N
1561261155.9,286046998.1,N
1561261175.7,286046993.5,N
1561261195.6,286046993.9,N
1561261215.4,286046998.2,N
1561261235.2,286046999.6,N
1561261255.1,286046992.4,N
1561261256.0,286046992.4,N
1561261275.8,286046991.1,N
1561261295.7,286046990.6,N
1561261315.5,286046992.9,N
1561261335.3,286046996.0,N
1561261355.2,286046996.5,N
1561261375.0,286046993.6,N
1561261375.9,286046993.6,N
1561261395.7,286046993.9,N
1561261415.6,286046990.4,N
1561261435.4,286046989.8,N
1561261455.3,286046988.2,Y
1561261475.1,286046990.2,P
1561261495.8,286046992.8,N
1561261515.7,286046991.0,P
1561261535.5,286046991.2,Y
1561261555.4,286046997.6,P
1561261575.2,286047000.0,N
1561261595.0,286046999.3,N
1561261595.9,286046999.3,N
1561261615.8,286046999.4,N
1561261635.6,286047002.6,N
1561261655.4,286047003.1,N
1561261675.3,286047004.3,N
1561261695.1,286047002.1,N
1561261715.9,286047002.5,N
1561261735.7,286047001.8,N
1561261755.5,286047002.6,N
1561261775.4,286047002.2,N
1561261795.2,286047003.7,N
1561261815.1,286047008.2,N
1561261816.0,286047008.2,N
1561261835.8,286047008.2,N
1561261855.6,286047006.9,N
1561261875.5,286047008.2,N
1561261895.3,286047006.4,N
1561261915.1,286047004.8,N
1561261935.9,286047008.9,N
1561261955.7,286047012.0,N
1561261975.6,286047009.9,N
1561261995.4,286047008.3,N
1561262015.2,286047009.0,N
1561262035.1,286047008.1,N
1561262036.0,286047008.1,N
1561262055.8,286047012.1,N
1561262075.7,286047008.4,N
1561262095.5,286047008.4,N
1561262115.3,286047007.4,N
1561262135.2,286047011.9,Y
1561262155.0,286047005.6,P
1561262155.9,286047005.6,P
1561262175.7,286047002.0,P
1561262195.6,286047000.3,N
1561262215.4,286046999.3,N
1561262235.3,286047000.5,N
1561262255.1,286047000.6,N
1561262256.0,286047000.6,N
1561262275.8,286046999.5,N
1561262295.7,286046999.2,N
1561262315.5,286047000.4,N
1561262335.3,286046999.1,N
1561262355.2,286046999.7,N
1561262375.0,286047001.5,N
1561262375.9,286047001.5,N
1561262395.8,286047000.1,N
